FENGYUN 1C DEB

Satellite information

Favourite Embed

Satellite Type and Status

DEBRISIN ORBIT

Key statistics

Satellite FENGYUN 1C DEB at a glance.

Uptime

9556

Days in orbit

Revolutions

≈ 14.1

Per day

Orbit

SSO

Sun Synchronous Orbit

Inclination

99.0

Latest

Satellite identification and parameters

Extended collection of information and parameters for FENGYUN 1C DEB.

Object identification

Identified? True

Debris? True

Object name: FENGYUN 1C DEB

International designator: 1999-025BMR

Object number (NORAD): 31259

Object ID (CCSDS): 31259

Country: PEOPLES REPUBLIC OF CHINA (PRC)

Current information (Y/N): Y

RCS size: SMALL

Orbital parameters

Period: 101.85 minutes

Inclination: 99.0163 deg

SMA: 7224.407 km

Apoapsis: 891.529 km

Periapsis: 801.016 km

RAAN: 265.243 deg

Eccentricy: 0.0062644

Argument of periapsis: 285.9609 deg

Mean anomaly: 138.3527 deg

Mean motion: 14.13837258 rev/day

Mean motion (dot): 0.00001958 rev/day2

B* drag term: 0.0010383 1/REarth

Two-line elements (TLE)

Creation date: July 6, 2025, 6:05 p.m.

Reference frame: TEME

Reference center: EARTH

Epoch: July 6, 2025, 11:11 a.m. UTC

TLE line 0: 0 FENGYUN 1C DEB

TLE line 1: 1 31259U 99025BMR 25187.46622751 .00001958 00000-0 10383-2 0 9991

TLE line 2: 2 31259 99.0163 265.2430 0062644 285.9609 138.3527 14.13837258933188

Live tracking on map

Real-time ground track for satellite FENGYUN 1C DEB.

In-orbit conjunctions

A list of the most updated potential collisions computed for object FENGYUN 1C DEB.

Target Orbit TCA Probability of collision Miss distance Type
CZ-6A DEB LEO 2024-12-30 06:24:05 0.0001427075 294.0 (m) DEBRIS
CZ-6A DEB LEO 2024-11-20 18:06:41 0.0002436303 713.0 (m) DEBRIS
NOAA 16 DEB SSO 2024-11-08 07:34:07 0.0003147193 360.0 (m) DEBRIS

Associated space launch

Chinese polar orbiting meteorological satellite

FENGYUN 1C DEB was lifted into orbit during the mission ‘Long March 4B | Feng Yun 1C’, on board a Long March 4B space rocket.

The launch took place on May 10, 1999, 1:33 a.m. from Launch Complex 7.

For more information about the launch, click the button.

Launch to space Long March 4B | Feng Yun 1C
Long March 4B | Feng Yun 1C

Agency: N/A

Status: Launch Successful

Launch date: May 10, 1999, 1:33 a.m. UTC

Rocket: Long March 4B

Launch pad: Launch Complex 7

Location: Taiyuan Satellite Launch Center, People's Republic of China

...

Latest news about this satellite

There are no fresh news available about this satellite. Check back as we update our databases every day.


Newsletter sign-up

Weekly statistics, charts and insights to help you stay on top of the space industry.